User: anonymous   Login
Location: Sternwarte Stuttgart
(48.7670°N, 9.1830°E)
Time: 17:32:39
(UTC+02:00)
Language:

Cosmos 2219 - Orbit

View from above orbital plane
View from above orbital plane
View from above satellite
View from above satellite

Ground track
Ground track

The orbit data is extracted from the following two-line orbital elements,

1 22219U 92076A   19287.19142902 -.00000300  00000-0 -13368-3 0  9994
2 22219  71.0597 224.2300 0017875 181.1957 178.9126 14.13636787388199
Epoch (UTC): 14 October 2019 04:35:39
Eccentricity: 0.0017875
inclination: 71.0597°
perigee height: 834 km
apogee height: 860 km
right ascension of ascending node: 224.2300°
argument of perigee: 181.1957°
revolutions per day: 14.13636787
mean anomaly at epoch: 178.9126°
orbit number at epoch: 38819

The dashed part of the orbit path shows where the satellite is in the earth's shadow,  

DLR